{"data":{"norad_id":62208,"intl_designator":"2024-229S","name":"STARLINK-32675","alt_names":[],"object_type":"PAYLOAD","status":"ACTIVE","operator":null,"country":"US","launch_date":"2024-12-04","launch_site_code":"AFETR","launch_vehicle":null,"mission":null,"orbit_class":"UNKNOWN","rcs_meters":null,"size_class":null,"mass_kg":null,"dimensions":null,"purposes":["comms"],"wikipedia_slug":null,"has_3d_model":false,"image_url":null,"decayed_at":null,"tle_current":{"epoch":"2026-05-25T04:53:13.365888Z","epoch_age_seconds":53628,"freshness":"FRESH","line1":"1 62208U 24229S   26145.20362692  .00014330  00000+0  52884-3 0  9995","line2":"2 62208  43.0007 198.5659 0001565 270.2485  89.8187 15.27606386 82265","mean_motion":15.27606386,"eccentricity":0.0001565,"inclination_deg":43.0007,"raan_deg":198.5659,"arg_perigee_deg":270.2485,"mean_anomaly_deg":89.8187,"bstar":0.00052884,"rev_number":8226,"period_min":94.265120465397,"perigee_km":481.89632474133,"apogee_km":484.04385125987,"semimajor_km":6861.1070880006,"source":"CELESTRAK","updated_at":"2026-05-25T13:38:19.609365Z"}}}